Temp
-8 -8 -8 -8 -8 -8 -8 -8 -8 -8 -8 -8 -8 -8 -8 -8 -8 -8 -8 -8 -8 -8 -8 -8 -8 -8 -8 -8 -8 -8 -8 -8 -9 -9 -9 -10 -10 -10 -10 -10 -10 -11 -11
-8 -8 -8 -8 -8 -8 -8 -8 -8 -8 -8 -8 -8 -8 -8 -8 -8 -8 -8 -8 -8 -8 -8 -8 -8 -8 -9 -9 -9 -9 -9 -9 -9 -9 -10 -10 -10 -10 -10 -10 -10 -11 -11
-8 -8 -8 -8 -9 -9 -9 -9 -9 -9 -9 -9 -8 -9 -8 -8 -9 -9 -9 -9 -9 -9 -9 -9 -9 -9 -9 -9 -9 -9 -9 -9 -10 -10 -10 -10 -10 -10 -10 -11 -11 -11 -11
-9 -9 -9 -9 -9 -9 -9 -9 -9 -9 -9 -8 -9 -9 -9 -9 -9 -9 -9 -9 -9 -9 -9 -9 -9 -9 -9 -9 -10 -10 -10 -10 -10 -10 -10 -11 -11 -11 -11 -11 -11 -11 -11
-9 -10 -10 -10 -9 -9 -9 -9 -9 -9 -9 -9 -9 -9 -9 -9 -9 -9 -9 -9 -9 -9 -9 -9 -9 -10 -10 -10 -10 -10 -10 -10 -10 -10 -10 -11 -11 -11 -11 -11 -12 -12 -12
-10 -10 -10 -10 -10 -10 -10 -9 -9 -9 -9 -9 -9 -9 -9 -9 -9 -9 -9 -9 -9 -10 -10 -10 -10 -10 -10 -10 -10 -10 -10 -10 -10 -11 -11 -11 -11 -11 -11 -12 -12 -12 -13
-10 -10 -10 -10 -10 -10 -9 -9 -9 -10 -10 -10 -9 -9 -9 -10 -10 -9 -10 -10 -10 -10 -10 -10 -10 -10 -10 -10 -11 -11 -11 -11 -11 -11 -11 -12 -12 -12 -12 -12 -12 -12 -13
-10 -10 -10 -10 -10 -10 -10 -10 -10 -10 -10 -10 -10 -9 -9 -9 -10 -10 -10 -10 -10 -10 -11 -11 -11 -11 -11 -11 -11 -11 -11 -12 -12 -11 -12 -12 -12 -12 -12 -12 -12 -12 -13
-11 -10 -10 -10 -10 -10 -10 -10 -10 -10 -10 -10 -9 -9 -9 -9 -9 -9 -10 -10 -10 -11 -11 -11 -11 -11 -12 -12 -12 -12 -12 -12 -13 -12 -12 -12 -12 -12 -12 -13 -13 -13 -13
-10 -10 -11 -11 -10 -10 -10 -10 -10 -10 -10 -9 -10 -10 -10 -10 -10 -9 -10 -10 -11 -11 -11 -11 -12 -12 -12 -12 -12 -12 -12 -13 -13 -13 -13 -13 -12 -13 -13 -13 -13 -13 -13
-11 -11 -11 -10 -10 -10 -11 -10 -10 -10 -10 -11 -11 -11 -11 -12 -12 -12 -10 -11 -11 -12 -12 -12 -12 -12 -12 -12 -13 -13 -14 -15 -15 -16 -16 -16 -15 -14 -14 -14 -14 -14 -14
-11 -11 -11 -11 -11 -11 -11 -11 -11 -11 -11 -12 -12 -12 -12 -12 -12 -12 -12 -11 -12 -12 -12 -12 -12 -12 -12 -13 -14 -16 -15 -16 -17 -17 -18 -17 -16 -17 -16 -16 -16 -15 -15
-11 -11 -11 -11 -11 -11 -11 -11 -12 -12 -12 -13 -13 -13 -13 -13 -13 -13 -13 -12 -12 -11 -11 -11 -13 -14 -15 -16 -18 -19 -20 -21 -20 -20 -20 -20 -18 -18 -17 -15 -16 -16 -15
-11 -11 -11 -11 -11 -12 -12 -12 -13 -13 -13 -13 -13 -13 -13 -13 -14 -14 -14 -14 -13 -13 -13 -13 -16 -18 -20 -21 -22 -22 -22 -23 -22 -22 -21 -20 -20 -18 -18 -17 -15 -15 -15
-11 -11 -12 -12 -12 -12 -13 -13 -13 -13 -13 -13 -14 -14 -14 -14 -15 -15 -16 -17 -19 -19 -17 -16 -19 -21 -22 -23 -23 -23 -23 -24 -24 -24 -23 -22 -22 -20 -19 -18 -18 -17 -15
-12 -12 -13 -13 -13 -13 -13 -13 -13 -14 -14 -14 -14 -14 -15 -15 -15 -16 -18 -19 -21 -22 -22 -21 -21 -21 -22 -23 -23 -23 -24 -24 -24 -24 -25 -24 -23 -22 -22 -21 -19 -18 -17
-13 -13 -13 -13 -14 -14 -14 -14 -14 -14 -14 -15 -15 -15 -16 -16 -18 -19 -21 -21 -22 -22 -22 -21 -22 -22 -23 -24 -24 -24 -24 -24 -24 -24 -25 -24 -24 -24 -23 -22 -21 -21 -20
-13 -14 -14 -14 -14 -14 -14 -14 -15 -15 -15 -15 -16 -16 -18 -20 -21 -22 -22 -22 -22 -23 -24 -24 -24 -24 -25 -25 -25 -25 -25 -24 -24 -24 -24 -24 -24 -24 -23 -23 -23 -22 -21
-14 -14 -14 -14 -14 -15 -15 -15 -15 -16 -16 -16 -17 -19 -20 -21 -23 -23 -23 -23 -24 -25 -25 -25 -25 -25 -25 -26 -26 -26 -25 -25 -25 -24 -24 -24 -24 -23 -23 -23 -23 -23 -22
-15 -15 -15 -15 -15 -16 -16 -16 -16 -17 -17 -18 -20 -21 -23 -24 -24 -23 -24 -25 -25 -25 -25 -26 -26 -26 -26 -27 -28 -28 -26 -26 -25 -25 -24 -24 -24 -23 -23 -23 -23 -22 -22
-16 -15 -15 -16 -16 -17 -17 -17 -17 -18 -18 -20 -22 -24 -25 -24 -24 -25 -25 -26 -26 -26 -26 -27 -26 -27 -27 -28 -29 -30 -30 -27 -26 -25 -24 -24 -24 -23 -23 -23 -23 -23 -22
-16 -16 -16 -17 -17 -18 -18 -18 -18 -19 -21 -23 -24 -25 -25 -24 -25 -25 -26 -26 -26 -26 -27 -27 -27 -28 -28 -29 -30 -30 -30 -30 -27 -27 -26 -24 -24 -24 -23 -23 -23 -23 -23
-17 -17 -17 -18 -18 -18 -18 -19 -20 -22 -24 -25 -25 -25 -25 -25 -26 -26 -26 -26 -26 -27 -29 -28 -28 -28 -28 -30 -30 -30 -30 -30 -29 -29 -26 -24 -25 -23 -23 -22 -22 -22 -22
-17 -18 -18 -18 -19 -19 -19 -21 -23 -25 -25 -26 -26 -25 -25 -26 -26 -26 -26 -26 -27 -28 -28 -29 -30 -30 -30 -30 -30 -30 -30 -30 -30 -29 -27 -27 -25 -24 -23 -23 -23 -22 -23
-18 -18 -19 -19 -19 -20 -21 -24 -25 -25 -26 -26 -26 -25 -27 -27 -27 -27 -27 -27 -27 -28 -29 -30 -30 -30 -30 -31 -30 -29 -30 -30 -30 -30 -30 -28 -26 -25 -25 -24 -24 -23 -23
-18 -19 -19 -20 -20 -22 -24 -25 -26 -26 -27 -26 -26 -26 -27 -28 -28 -28 -28 -27 -27 -28 -29 -29 -30 -30 -31 -31 -30 -30 -30 -30 -29 -29 -29 -28 -28 -27 -27 -27 -26 -25 -24
Height
5807 5804 5802 5799 5796 5794 5791 5787 5784 5781 5779 5775 5772 5769 5767 5764 5762 5759 5757 5754 5751 5748 5746 5743 5740 5737 5735 5732 5730 5728 5725 5723 5721 5720 5719 5717 5716 5715 5714 5714 5713 5713 5713
5801 5798 5795 5792 5789 5786 5781 5779 5776 5774 5771 5768 5765 5762 5759 5757 5754 5752 5749 5747 5743 5739 5735 5733 5730 5726 5723 5720 5718 5715 5713 5710 5708 5707 5705 5703 5702 5701 5701 5700 5700 5700 5700
5794 5790 5787 5784 5780 5777 5774 5771 5768 5766 5764 5760 5757 5754 5751 5748 5745 5742 5738 5736 5733 5730 5726 5721 5717 5714 5711 5708 5705 5702 5699 5697 5695 5693 5691 5689 5688 5687 5687 5686 5686 5686 5685
5787 5783 5780 5776 5773 5769 5766 5763 5761 5758 5755 5751 5749 5745 5742 5739 5736 5732 5728 5723 5721 5718 5714 5710 5704 5700 5697 5694 5691 5688 5685 5683 5681 5679 5677 5675 5674 5673 5673 5672 5672 5671 5670
5778 5775 5772 5769 5766 5763 5759 5756 5752 5749 5745 5742 5739 5736 5733 5729 5725 5722 5717 5713 5708 5704 5699 5696 5693 5688 5682 5678 5676 5674 5672 5669 5665 5662 5660 5660 5659 5659 5658 5657 5657 5657 5657
5770 5768 5765 5762 5759 5756 5752 5748 5745 5741 5737 5733 5730 5727 5722 5718 5714 5710 5706 5701 5696 5690 5685 5681 5676 5673 5669 5664 5659 5655 5653 5651 5648 5646 5643 5642 5641 5641 5642 5642 5641 5641 5642
5764 5760 5757 5754 5750 5747 5743 5739 5736 5732 5727 5721 5718 5716 5711 5706 5702 5696 5692 5686 5681 5676 5670 5664 5658 5653 5648 5643 5640 5636 5633 5630 5629 5626 5625 5625 5625 5624 5624 5624 5625 5625 5625
5756 5752 5749 5745 5742 5738 5733 5729 5725 5721 5716 5710 5704 5699 5696 5696 5688 5681 5675 5669 5663 5659 5653 5647 5640 5633 5627 5620 5617 5612 5609 5606 5605 5606 5604 5603 5604 5604 5604 5605 5606 5607 5607
5748 5745 5741 5737 5733 5729 5724 5719 5714 5709 5704 5698 5691 5682 5676 5672 5669 5664 5660 5653 5646 5639 5633 5627 5621 5614 5606 5598 5594 5590 5585 5578 5575 5576 5578 5578 5579 5581 5583 5585 5586 5587 5589
5739 5735 5732 5728 5723 5719 5713 5708 5701 5694 5687 5680 5674 5668 5660 5649 5639 5638 5632 5624 5618 5611 5606 5601 5594 5587 5577 5568 5564 5562 5558 5552 5551 5548 5547 5551 5556 5559 5560 5561 5564 5565 5567
5731 5727 5723 5718 5712 5706 5700 5693 5686 5679 5671 5663 5654 5645 5637 5630 5622 5613 5614 5599 5594 5581 5577 5569 5562 5554 5545 5536 5530 5527 5523 5520 5519 5518 5519 5523 5528 5532 5534 5537 5540 5543 5544
5722 5717 5712 5706 5700 5694 5686 5678 5671 5663 5654 5645 5636 5626 5616 5605 5595 5586 5581 5577 5566 5563 5549 5545 5533 5521 5510 5501 5496 5488 5487 5487 5485 5487 5487 5491 5496 5502 5508 5512 5515 5521 5520
5711 5706 5700 5694 5687 5680 5672 5664 5656 5647 5637 5627 5617 5606 5595 5583 5570 5557 5545 5541 5531 5530 5522 5516 5497 5483 5470 5462 5459 5453 5459 5456 5457 5456 5457 5463 5468 5473 5481 5481 5482 5489 5497
5701 5695 5688 5681 5673 5666 5658 5649 5639 5628 5618 5607 5595 5582 5570 5556 5542 5527 5511 5494 5487 5484 5486 5485 5467 5454 5436 5432 5428 5424 5426 5429 5428 5429 5431 5432 5437 5444 5450 5455 5455 5462 5469
5689 5682 5674 5667 5659 5650 5640 5630 5620 5609 5597 5583 5571 5558 5545 5531 5517 5501 5486 5469 5448 5436 5438 5455 5434 5431 5412 5409 5405 5401 5401 5402 5403 5404 5404 5407 5408 5412 5421 5427 5431 5434 5444
5675 5667 5659 5651 5642 5632 5623 5612 5601 5588 5575 5561 5548 5536 5521 5507 5492 5475 5458 5444 5429 5407 5392 5414 5409 5399 5393 5383 5380 5378 5376 5375 5378 5381 5383 5381 5382 5389 5392 5397 5403 5410 5417
5660 5652 5644 5634 5625 5615 5605 5594 5581 5567 5554 5542 5527 5512 5496 5479 5463 5447 5432 5418 5404 5387 5367 5377 5363 5371 5358 5350 5349 5347 5348 5348 5352 5356 5357 5358 5363 5366 5371 5376 5380 5385 5390
5645 5637 5628 5618 5608 5596 5584 5573 5562 5549 5535 5520 5504 5487 5468 5452 5438 5423 5408 5395 5379 5366 5347 5340 5342 5337 5331 5324 5315 5314 5317 5319 5324 5331 5333 5337 5341 5345 5349 5354 5360 5365 5368
5631 5621 5611 5600 5588 5576 5566 5555 5542 5528 5513 5496 5478 5459 5444 5428 5416 5400 5385 5370 5357 5347 5337 5321 5317 5312 5306 5300 5289 5284 5283 5288 5294 5302 5308 5314 5318 5323 5328 5334 5341 5346 5351
5615 5605 5593 5582 5570 5558 5547 5535 5520 5506 5490 5472 5453 5437 5421 5408 5393 5379 5365 5350 5338 5329 5319 5306 5297 5290 5282 5278 5262 5253 5251 5254 5262 5272 5280 5286 5294 5298 5305 5312 5319 5326 5332
5599 5588 5577 5564 5552 5540 5526 5512 5499 5484 5466 5450 5434 5418 5403 5389 5373 5358 5343 5333 5320 5311 5299 5287 5280 5271 5263 5254 5244 5236 5227 5228 5235 5243 5250 5258 5268 5277 5283 5288 5295 5301 5308
5583 5572 5559 5547 5535 5521 5507 5492 5476 5460 5445 5429 5415 5401 5386 5369 5354 5341 5328 5315 5305 5293 5282 5270 5264 5253 5247 5237 5229 5221 5214 5210 5215 5222 5221 5238 5242 5251 5257 5261 5266 5271 5278
5568 5556 5543 5529 5516 5502 5488 5473 5458 5442 5425 5409 5395 5382 5367 5350 5335 5324 5314 5303 5293 5281 5268 5257 5245 5238 5230 5223 5214 5210 5204 5200 5201 5203 5206 5217 5219 5229 5232 5237 5240 5245 5253
5552 5540 5527 5513 5499 5483 5468 5453 5438 5423 5409 5393 5378 5362 5345 5332 5318 5306 5298 5290 5280 5270 5259 5247 5234 5222 5216 5210 5203 5198 5195 5193 5193 5194 5196 5203 5206 5211 5215 5219 5222 5227 5235
5537 5523 5509 5497 5481 5464 5448 5432 5419 5407 5394 5379 5363 5345 5329 5316 5303 5291 5281 5274 5268 5260 5249 5236 5223 5213 5205 5199 5194 5192 5190 5189 5188 5191 5193 5194 5197 5201 5203 5206 5210 5216 5224
5521 5505 5490 5476 5461 5445 5430 5417 5403 5389 5377 5364 5349 5330 5315 5301 5288 5277 5267 5259 5253 5247 5238 5229 5218 5207 5199 5193 5190 5187 5187 5187 5186 5189 5191 5193 5195 5196 5198 5200 5203 5208 5217
Wind_Speed
25 28 30 33 35 37 40 41 42 39 38 38 37 37 37 38 39 41 41 42 43 44 44 44 45 46 47 48 49 50 52 53 53 53 52 52 52 51 49 47 46 45 45
30 32 34 36 36 36 36 35 35 35 35 36 37 38 39 40 41 42 44 45 46 49 51 51 51 52 52 53 54 54 55 55 55 55 54 54 53 53 52 51 49 49 47
35 36 36 36 35 35 35 34 34 35 35 37 38 41 42 44 46 48 49 50 51 52 53 55 56 56 56 56 57 58 59 59 59 60 59 58 58 57 56 55 54 52 51
38 38 36 35 35 35 35 36 37 39 41 41 42 44 46 48 50 52 53 54 54 54 54 53 56 57 57 56 56 57 58 59 60 61 61 61 61 61 61 60 58 57 56
38 36 35 35 35 36 38 40 42 44 45 47 49 50 50 49 49 50 53 55 57 58 59 59 58 59 61 61 60 59 59 59 60 61 61 61 60 61 62 61 61 60 58
35 35 35 36 38 40 42 44 46 49 50 50 49 49 50 51 53 56 57 60 61 63 65 66 66 65 65 67 69 70 69 68 66 65 65 63 62 61 61 62 62 62 60
37 38 39 40 42 43 46 47 47 46 47 50 52 53 55 58 60 63 65 67 68 69 71 72 74 75 76 77 75 75 75 74 73 73 70 67 64 64 63 63 62 63 63
39 40 41 43 44 45 45 46 48 49 51 54 57 60 62 62 65 68 70 72 73 74 75 77 78 80 80 81 82 82 80 79 78 77 76 71 70 69 67 66 65 63 64
39 41 42 43 43 44 45 47 48 51 55 57 62 67 70 72 73 73 74 76 78 80 81 82 83 85 86 88 88 87 86 86 83 83 83 82 80 76 73 71 69 67 67
41 42 42 43 45 47 48 51 53 58 62 67 70 71 74 79 84 84 84 86 87 88 89 90 90 91 93 94 93 90 90 89 87 88 87 82 82 71 74 75 74 72 69
41 42 45 46 49 51 54 58 63 67 71 73 75 79 82 82 84 88 91 93 94 96 95 97 97 98 99 100 100 96 92 89 88 85 76 75 80 73 69 77 74 74 71
44 46 48 50 53 57 61 65 69 71 73 76 78 81 85 89 92 94 95 95 97 96 99 99 101 102 104 103 99 94 95 89 83 81 84 77 78 82 79 77 81 73 81
46 51 53 56 59 62 65 69 70 73 75 79 83 86 88 92 95 98 102 102 104 103 104 102 103 103 103 100 92 87 80 77 78 75 79 82 80 86 84 76 71 73 78
51 53 57 60 63 65 67 70 73 77 81 84 87 91 94 97 100 103 104 108 109 108 105 100 97 94 90 84 79 76 69 68 72 76 78 79 84 79 84 93 87 77 67
55 58 61 63 65 68 71 75 78 82 85 89 93 95 98 99 99 101 102 102 103 105 103 92 89 83 85 80 76 74 67 66 68 68 71 80 82 84 88 76 99 96 82
59 62 64 66 68 72 76 80 82 86 90 94 97 99 100 99 100 100 99 97 96 99 100 88 83 84 84 85 80 75 70 69 68 67 64 67 73 79 82 84 82 86 104
63 65 67 69 73 77 80 82 86 90 94 97 100 100 101 101 98 97 95 94 92 90 92 83 83 75 80 86 86 82 76 72 68 66 67 67 66 68 74 75 82 85 86
67 68 70 74 77 80 83 87 90 93 97 98 100 101 99 97 95 94 92 88 86 83 81 77 69 66 65 66 73 85 84 77 72 68 67 65 60 59 60 63 64 67 72
69 71 74 77 81 83 87 89 92 95 97 100 98 97 97 94 91 90 87 83 77 72 69 75 72 68 68 67 69 69 73 83 78 72 70 69 66 63 61 60 57 57 59
72 75 78 80 83 86 88 91 94 98 98 96 95 96 90 90 90 87 80 73 70 68 71 73 67 68 68 63 65 62 62 65 78 78 74 74 71 71 69 66 65 63 64
74 78 79 82 85 87 90 95 98 99 96 95 92 86 88 89 87 79 73 70 70 69 70 66 65 65 63 60 57 54 53 53 60 74 80 77 76 74 73 73 73 73 73
77 79 82 85 86 90 95 96 97 96 92 88 84 84 87 88 79 72 69 68 67 67 62 64 64 61 56 56 52 49 45 41 44 48 64 76 79 78 78 80 84 84 76
78 82 84 87 90 93 95 95 93 88 84 83 83 85 87 81 72 68 65 62 61 58 58 63 65 59 57 52 51 44 38 36 30 29 41 49 57 63 66 62 59 58 59
81 83 86 88 92 94 94 91 85 82 81 81 83 86 83 74 70 66 62 58 54 54 57 61 61 58 54 50 46 40 32 23 18 18 23 25 34 37 40 42 44 46 48
82 85 89 91 93 92 89 82 80 79 78 79 83 85 74 70 67 62 59 55 51 52 54 57 52 51 49 44 39 28 19 10 5 7 14 15 18 21 27 31 35 38 41
85 90 93 94 92 88 82 78 78 77 78 78 83 77 70 66 62 57 56 56 53 52 52 43 41 41 39 36 32 24 14 6 8 7 6 7 4 15 17 19 24 29 33
Wind_Direction
289 286 285 284 283 282 282 284 285 287 288 289 289 288 288 287 287 286 286 286 287 286 286 285 285 284 284 283 282 280 279 278 277 277 277 277 276 275 274 273 273 275 276
288 287 286 285 286 285 287 287 289 290 289 289 289 290 291 291 290 289 289 288 288 288 288 287 286 285 284 283 282 281 281 281 281 280 279 278 276 276 275 274 273 274 273
295 293 291 290 290 291 291 291 291 290 290 290 290 290 291 291 291 291 291 291 290 289 290 290 289 287 286 285 284 283 282 281 281 280 278 277 276 274 274 273 272 271 270
297 294 291 292 292 291 291 290 290 290 291 290 291 291 292 293 294 294 294 294 294 293 291 289 288 287 286 283 282 281 281 281 280 279 278 278 278 277 276 275 273 272 269
296 293 291 290 288 288 290 291 292 293 293 294 295 295 296 296 296 296 295 295 294 292 290 288 287 286 286 285 284 284 283 282 280 279 278 277 275 275 275 274 273 272 269
296 295 294 292 293 294 295 296 296 296 296 296 297 298 298 297 298 297 296 294 293 292 291 290 288 286 284 283 283 283 283 281 279 277 276 274 273 272 270 269 269 268 267
299 299 301 302 301 300 301 301 302 302 302 301 300 299 298 298 297 296 295 294 292 291 290 289 286 285 285 284 283 282 282 281 279 278 276 272 269 269 268 268 266 265 265
302 303 303 303 304 304 303 303 303 303 304 306 305 303 299 297 295 295 294 293 292 290 288 287 287 287 285 284 283 282 281 279 277 276 275 273 271 269 267 266 266 264 262
302 302 302 302 301 301 301 301 302 301 302 304 305 303 300 298 295 295 293 292 291 290 289 286 285 283 282 282 281 280 278 276 272 272 272 270 269 269 267 265 264 263 261
301 300 299 298 298 298 299 300 303 306 307 306 306 305 303 303 302 300 298 297 296 294 291 289 287 285 283 281 278 275 273 270 268 268 266 269 269 266 265 266 262 260 259
292 294 296 298 300 303 306 309 310 310 310 308 307 306 304 302 299 298 299 297 295 293 292 290 288 286 283 281 279 277 272 268 266 260 261 260 259 259 260 259 259 258 255
298 301 303 307 309 309 310 311 310 309 308 307 306 303 302 302 301 299 297 295 294 293 293 292 290 287 283 280 277 274 272 270 264 257 250 250 250 248 253 257 253 251 251
303 308 309 310 310 310 310 309 308 308 307 305 304 303 302 302 302 301 301 299 299 298 296 296 291 287 284 282 281 278 276 267 261 252 247 247 247 248 242 242 247 245 243
307 308 309 309 310 308 307 308 308 308 306 306 305 305 306 307 306 306 305 303 302 299 297 295 290 289 288 287 286 281 277 268 263 256 248 248 245 241 245 239 243 240 238
307 308 308 307 307 308 309 309 308 308 308 308 309 310 309 309 307 304 302 300 299 299 297 296 292 289 288 287 283 282 278 269 263 260 256 251 249 245 240 241 242 243 234
307 307 308 308 309 309 309 309 309 309 310 311 311 310 310 308 305 303 302 301 299 298 296 296 291 288 283 280 279 278 275 269 263 259 256 255 251 250 249 247 244 242 242
308 307 308 309 309 308 309 309 310 311 311 311 312 311 310 306 306 304 304 303 302 300 298 299 295 290 283 277 272 270 269 266 262 258 253 252 251 250 249 249 250 248 247
307 308 308 308 308 309 310 312 311 311 312 313 313 311 308 308 307 307 307 305 304 302 302 302 303 301 295 289 280 270 264 262 260 255 252 249 246 246 247 250 252 252 252
308 308 308 308 310 312 312 312 312 315 316 316 312 310 310 309 310 311 309 307 304 302 302 303 303 303 302 297 288 279 269 259 256 254 250 248 246 245 245 245 248 251 255
308 308 309 311 312 313 314 315 317 318 317 314 312 310 311 313 314 312 310 307 304 303 302 304 303 305 305 301 296 287 268 262 253 251 250 249 249 250 250 249 249 251 252
309 309 311 313 314 315 318 319 319 318 316 312 311 311 313 316 314 313 309 307 305 304 306 304 304 306 307 305 300 294 283 263 254 249 248 249 250 253 254 255 256 257 260
309 311 314 315 316 319 320 319 318 316 312 312 312 313 316 316 315 312 309 307 307 307 307 308 308 306 306 306 303 301 296 276 258 257 252 248 251 253 256 258 260 262 256
312 315 316 317 320 320 320 319 315 313 315 313 314 317 318 318 315 311 310 309 310 310 307 310 311 306 307 306 304 305 300 291 278 265 252 250 251 254 256 258 256 252 247
315 315 316 319 320 320 318 315 313 315 315 315 317 320 320 318 314 311 310 310 310 310 308 312 310 308 307 307 306 305 302 294 283 268 263 252 253 255 255 253 250 246 241
315 316 317 318 319 317 315 314 315 315 315 318 321 322 320 318 316 312 311 311 310 312 311 313 309 308 310 310 310 311 305 302 244 234 262 275 264 259 254 252 247 240 235
316 317 318 318 317 315 314 314 315 315 318 321 322 322 321 320 317 314 314 311 309 313 315 311 308 310 311 311 312 311 301 221 194 184 283 259 288 289 261 254 246 236 228